Time,TemperatureF,DewpointF,PressureIn,WindDirection,WindDirectionDegrees,WindSpeedMPH,WindSpeedGustMPH,Humidity,HourlyPrecipIn,Conditions,Clouds,dailyrainin,SolarRadiationWatts/m^2,SoftwareType,DateUTC
2013-04-25 00:01:00,39.3,23.6,30.12,SSE,152,1.9,3.4,53,0.00,CLR,CLR,0.00,0.0,WeatherDisplay:10.37,2013-04-25 06:01:00,
2013-04-25 00:06:00,39.1,23.4,30.11,SSE,153,0.0,0.0,53,0.00,CLR,CLR,0.00,0.0,WeatherDisplay:10.37,2013-04-25 06:06:00,
2013-04-25 00:11:00,38.8,23.6,30.11,SSE,153,0.6,2.3,54,0.00,CLR,CLR,0.00,0.0,WeatherDisplay:10.37,2013-04-25 06:11:00,
2013-04-25 00:16:00,38.7,23.5,30.11,SSE,152,0.0,1.1,54,0.00,CLR,CLR,0.00,0.0,WeatherDisplay:10.37,2013-04-25 06:16:00,
2013-04-25 00:21:00,38.5,23.3,30.11,SSE,152,0.0,0.0,54,0.00,CLR,CLR,0.00,0.0,WeatherDisplay:10.37,2013-04-25 06:21:00,
2013-04-25 00:26:00,38.3,23.5,30.10,SSE,152,0.0,0.0,55,0.00,CLR,CLR,0.00,0.0,WeatherDisplay:10.37,2013-04-25 06:26:00,
2013-04-25 00:31:00,38.1,22.9,30.10,SSE,152,0.0,0.0,54,0.00,CLR,CLR,0.00,0.0,WeatherDisplay:10.37,2013-04-25 06:31:00,
2013-04-25 00:36:00,37.9,23.2,30.10,SSE,152,0.2,2.3,55,0.00,CLR,CLR,0.00,0.0,WeatherDisplay:10.37,2013-04-25 06:36:00,
2013-04-25 00:41:00,37.7,22.5,30.10,South,182,1.4,4.6,54,0.00,CLR,CLR,0.00,0.0,WeatherDisplay:10.37,2013-04-25 06:41:00,
2013-04-25 00:46:00,37.5,22.3,30.10,South,188,1.6,3.4,54,0.00,CLR,CLR,0.00,0.0,WeatherDisplay:10.37,2013-04-25 06:46:00,
2013-04-25 00:51:00,37.4,22.3,30.11,South,189,0.0,1.1,54,0.00,CLR,CLR,0.00,0.0,WeatherDisplay:10.37,2013-04-25 06:51:00,
2013-04-25 00:56:00,37.3,22.2,30.10,South,188,0.0,0.0,54,0.00,CLR,CLR,0.00,0.0,WeatherDisplay:10.37,2013-04-25 06:56:00,
2013-04-25 01:01:00,37.2,22.5,30.10,South,189,0.0,0.0,55,0.00,CLR,CLR,0.00,0.0,WeatherDisplay:10.37,2013-04-25 07:01:00,
2013-04-25 01:06:00,37.0,22.7,30.09,South,188,0.0,0.0,56,0.00,CLR,CLR,0.00,0.0,WeatherDisplay:10.37,2013-04-25 07:06:00,
2013-04-25 01:11:00,36.8,22.6,30.09,South,188,1.9,3.4,56,0.00,CLR,CLR,0.00,0.0,WeatherDisplay:10.37,2013-04-25 07:11:00,
2013-04-25 01:16:00,36.4,22.6,30.09,South,188,0.0,1.0,57,0.00,CLR,CLR,0.00,0.0,WeatherDisplay:10.37,2013-04-25 07:16:00,
2013-04-25 01:21:00,36.2,22.8,30.10,South,188,0.1,2.3,58,0.00,CLR,CLR,0.00,0.0,WeatherDisplay:10.37,2013-04-25 07:21:00,
2013-04-25 01:26:00,36.0,22.6,30.10,South,189,1.4,2.3,58,0.00,CLR,CLR,0.00,0.0,WeatherDisplay:10.37,2013-04-25 07:26:00,
2013-04-25 01:31:00,35.9,23.0,30.09,South,188,0.4,2.3,59,0.00,CLR,CLR,0.00,0.0,WeatherDisplay:10.37,2013-04-25 07:31:00,
2013-04-25 01:36:00,35.7,23.2,30.09,South,188,0.6,2.3,60,0.00,CLR,CLR,0.00,0.0,WeatherDisplay:10.37,2013-04-25 07:36:00,
2013-04-25 01:41:00,35.6,23.5,30.09,SSE,153,2.8,5.8,61,0.00,CLR,CLR,0.00,0.0,WeatherDisplay:10.37,2013-04-25 07:41:00,
2013-04-25 01:46:00,35.6,23.5,30.09,SSE,149,2.4,4.6,61,0.00,CLR,CLR,0.00,0.0,WeatherDisplay:10.37,2013-04-25 07:46:00,
2013-04-25 01:51:00,35.5,23.4,30.09,SSE,149,0.1,1.0,61,0.00,CLR,CLR,0.00,0.0,WeatherDisplay:10.37,2013-04-25 07:51:00,
2013-04-25 01:56:00,35.4,23.7,30.09,SSE,150,0.0,0.0,62,0.00,CLR,CLR,0.00,0.0,WeatherDisplay:10.37,2013-04-25 07:56:00,
2013-04-25 02:01:00,35.3,23.2,30.08,SSE,150,0.7,2.3,61,0.00,CLR,CLR,0.00,0.0,WeatherDisplay:10.37,2013-04-25 08:01:00,
2013-04-25 02:06:00,35.2,23.1,30.07,SSE,149,2.0,3.4,61,0.00,CLR,CLR,0.00,0.0,WeatherDisplay:10.37,2013-04-25 08:06:00,
2013-04-25 02:11:00,35.1,23.4,30.07,SSE,151,0.8,3.4,62,0.00,CLR,CLR,0.00,0.0,WeatherDisplay:10.37,2013-04-25 08:11:00,
2013-04-25 02:16:00,35.0,23.3,30.07,SSE,152,0.5,2.3,62,0.00,CLR,CLR,0.00,0.0,WeatherDisplay:10.37,2013-04-25 08:16:00,
2013-04-25 02:21:00,34.9,23.2,30.07,SSE,152,0.4,2.3,62,0.00,CLR,CLR,0.00,0.0,WeatherDisplay:10.37,2013-04-25 08:21:00,
2013-04-25 02:26:00,34.9,23.2,30.07,SSE,152,0.0,0.0,62,0.00,CLR,CLR,0.00,0.0,WeatherDisplay:10.37,2013-04-25 08:26:00,
2013-04-25 02:31:00,34.8,23.1,30.07,SSE,152,0.0,0.0,62,0.00,CLR,CLR,0.00,0.0,WeatherDisplay:10.37,2013-04-25 08:31:00,
2013-04-25 02:36:00,34.7,23.0,30.06,SSE,152,0.0,0.0,62,0.00,CLR,CLR,0.00,0.0,WeatherDisplay:10.37,2013-04-25 08:36:00,
2013-04-25 02:41:00,34.4,22.7,30.06,SSE,152,0.0,0.0,62,0.00,CLR,CLR,0.00,0.0,WeatherDisplay:10.37,2013-04-25 08:41:00,
2013-04-25 02:46:00,34.4,22.7,30.07,SSE,152,0.0,0.0,62,0.00,CLR,CLR,0.00,0.0,WeatherDisplay:10.37,2013-04-25 08:46:00,
2013-04-25 02:51:00,34.4,22.7,30.07,SSE,152,0.0,1.1,62,0.00,CLR,CLR,0.00,0.0,WeatherDisplay:10.37,2013-04-25 08:51:00,
2013-04-25 02:56:00,34.3,22.6,30.07,SSE,152,0.4,2.0,62,0.00,CLR,CLR,0.00,0.0,WeatherDisplay:10.37,2013-04-25 08:56:00,
2013-04-25 03:01:00,34.1,22.0,30.06,SSE,152,0.0,0.0,61,0.00,CLR,CLR,0.00,0.0,WeatherDisplay:10.37,2013-04-25 09:01:00,
2013-04-25 03:06:00,34.1,22.0,30.06,SSE,152,0.0,0.0,61,0.00,CLR,CLR,0.00,0.0,WeatherDisplay:10.37,2013-04-25 09:06:00,
2013-04-25 03:11:00,34.1,22.0,30.06,SSE,152,0.0,0.0,61,0.00,CLR,CLR,0.00,0.0,WeatherDisplay:10.37,2013-04-25 09:11:00,
2013-04-25 03:16:00,34.1,22.0,30.05,SSE,152,0.3,1.0,61,0.00,CLR,CLR,0.00,0.0,WeatherDisplay:10.37,2013-04-25 09:16:00,
2013-04-25 03:21:00,34.2,22.1,30.05,SSE,152,0.0,0.0,61,0.00,CLR,CLR,0.00,0.0,WeatherDisplay:10.37,2013-04-25 09:21:00,
2013-04-25 03:26:00,34.2,22.1,30.05,SSE,152,0.3,1.1,61,0.00,CLR,CLR,0.00,0.0,WeatherDisplay:10.37,2013-04-25 09:26:00,
2013-04-25 03:31:00,34.2,22.1,30.05,SSE,152,0.0,0.0,61,0.00,CLR,CLR,0.00,0.0,WeatherDisplay:10.37,2013-04-25 09:31:00,
2013-04-25 03:36:00,34.3,21.8,30.05,SSE,152,0.0,0.0,60,0.00,CLR,CLR,0.00,0.0,WeatherDisplay:10.37,2013-04-25 09:36:00,
2013-04-25 03:41:00,34.3,21.8,30.05,SSE,152,1.0,2.3,60,0.00,CLR,CLR,0.00,0.0,WeatherDisplay:10.37,2013-04-25 09:41:00,
2013-04-25 03:46:00,34.4,21.9,30.05,South,175,0.7,4.0,60,0.00,CLR,CLR,0.00,0.0,WeatherDisplay:10.37,2013-04-25 09:46:00,
2013-04-25 03:51:00,34.4,21.9,30.05,South,176,0.1,1.1,60,0.00,CLR,CLR,0.00,0.0,WeatherDisplay:10.37,2013-04-25 09:51:00,
2013-04-25 03:56:00,34.6,21.7,30.03,South,182,0.1,2.3,59,0.00,CLR,CLR,0.00,0.0,WeatherDisplay:10.37,2013-04-25 09:56:00,
2013-04-25 04:01:00,34.8,21.9,30.03,South,182,1.4,3.0,59,0.00,CLR,CLR,0.00,0.0,WeatherDisplay:10.37,2013-04-25 10:01:00,
2013-04-25 04:06:00,35.2,22.3,30.03,South,179,1.1,3.4,59,0.00,CLR,CLR,0.00,0.0,WeatherDisplay:10.37,2013-04-25 10:06:00,
2013-04-25 04:11:00,35.4,22.5,30.02,South,180,0.0,1.1,59,0.00,CLR,CLR,0.00,0.0,WeatherDisplay:10.37,2013-04-25 10:11:00,
2013-04-25 04:16:00,35.6,22.7,30.02,South,180,1.0,3.4,59,0.00,CLR,CLR,0.00,0.0,WeatherDisplay:10.37,2013-04-25 10:16:00,
2013-04-25 04:21:00,35.8,22.0,30.02,SSE,155,2.3,3.4,57,0.00,CLR,CLR,0.00,0.0,WeatherDisplay:10.37,2013-04-25 10:21:00,
2013-04-25 04:26:00,36.0,22.2,30.02,SSE,156,0.0,2.3,57,0.00,CLR,CLR,0.00,0.0,WeatherDisplay:10.37,2013-04-25 10:26:00,
2013-04-25 04:31:00,36.0,22.2,30.02,SSE,157,1.0,2.3,57,0.00,CLR,CLR,0.00,0.0,WeatherDisplay:10.37,2013-04-25 10:31:00,
2013-04-25 04:36:00,36.0,22.2,30.02,SSE,157,0.0,0.0,57,0.00,CLR,CLR,0.00,0.0,WeatherDisplay:10.37,2013-04-25 10:36:00,
2013-04-25 04:41:00,35.9,22.1,30.02,SSE,164,0.8,2.3,57,0.00,CLR,CLR,0.00,0.0,WeatherDisplay:10.37,2013-04-25 10:41:00,
2013-04-25 04:46:00,35.8,22.0,30.02,SSE,164,0.0,0.0,57,0.00,CLR,CLR,0.00,0.0,WeatherDisplay:10.37,2013-04-25 10:46:00,
2013-04-25 04:51:00,35.7,21.9,30.02,SSW,196,0.6,2.3,57,0.00,CLR,CLR,0.00,0.0,WeatherDisplay:10.37,2013-04-25 10:51:00,
2013-04-25 04:56:00,35.7,21.5,30.02,SSW,208,0.7,3.4,56,0.00,CLR,CLR,0.00,0.0,WeatherDisplay:10.37,2013-04-25 10:56:00,
2013-04-25 05:01:00,35.7,21.5,30.01,SSW,208,0.0,1.1,56,0.00,CLR,CLR,0.00,0.0,WeatherDisplay:10.37,2013-04-25 11:01:00,
2013-04-25 05:06:00,35.7,21.5,30.01,SSW,208,0.2,1.1,56,0.00,CLR,CLR,0.00,0.0,WeatherDisplay:10.37,2013-04-25 11:06:00,
2013-04-25 05:11:00,35.6,21.4,30.02,SSW,208,0.0,0.0,56,0.00,CLR,CLR,0.00,0.0,WeatherDisplay:10.37,2013-04-25 11:11:00,
2013-04-25 05:16:00,35.6,21.4,30.02,SSW,208,0.0,1.1,56,0.00,CLR,CLR,0.00,0.0,WeatherDisplay:10.37,2013-04-25 11:16:00,
2013-04-25 05:21:00,35.4,21.7,30.02,SSW,207,0.4,1.1,57,0.00,CLR,CLR,0.00,0.0,WeatherDisplay:10.37,2013-04-25 11:21:00,
2013-04-25 05:26:00,35.2,21.5,30.01,SSW,208,0.0,0.0,57,0.00,CLR,CLR,0.00,0.0,WeatherDisplay:10.37,2013-04-25 11:26:00,
2013-04-25 05:31:00,35.1,21.4,30.01,SSW,208,0.0,1.1,57,0.00,CLR,CLR,0.00,0.0,WeatherDisplay:10.37,2013-04-25 11:31:00,
2013-04-25 05:36:00,35.0,21.7,30.01,SSW,207,0.0,0.0,58,0.00,CLR,CLR,0.00,0.0,WeatherDisplay:10.37,2013-04-25 11:36:00,
2013-04-25 05:41:00,34.9,21.6,30.01,SSW,208,0.0,0.0,58,0.00,CLR,CLR,0.00,0.0,WeatherDisplay:10.37,2013-04-25 11:41:00,
2013-04-25 05:46:00,34.7,21.4,30.02,SSW,207,0.5,2.3,58,0.00,CLR,CLR,0.00,0.0,WeatherDisplay:10.37,2013-04-25 11:46:00,
2013-04-25 05:51:00,34.4,21.5,30.03,SSW,208,0.0,0.0,59,0.00,CLR,CLR,0.00,0.0,WeatherDisplay:10.37,2013-04-25 11:51:00,
2013-04-25 05:56:00,34.4,21.5,30.03,SSW,208,1.0,2.3,59,0.00,CLR,CLR,0.00,0.0,WeatherDisplay:10.37,2013-04-25 11:56:00,
2013-04-25 06:01:00,34.2,21.7,30.03,SSW,207,0.7,2.3,60,0.00,BKN,BKN,0.00,5.0,WeatherDisplay:10.37,2013-04-25 12:01:00,
2013-04-25 06:06:00,34.1,21.7,30.04,SSW,208,0.0,0.0,60,0.00,BKN,BKN,0.00,5.0,WeatherDisplay:10.37,2013-04-25 12:06:00,
2013-04-25 06:11:00,33.9,21.5,30.04,SSW,207,0.0,0.0,60,0.00,BKN,BKN,0.00,5.0,WeatherDisplay:10.37,2013-04-25 12:11:00,
2013-04-25 06:16:00,33.8,21.4,30.04,SSW,208,0.3,1.1,60,0.00,BKN,BKN,0.00,9.0,WeatherDisplay:10.37,2013-04-25 12:16:00,
2013-04-25 06:21:00,33.7,21.3,30.04,SSW,207,0.0,0.0,60,0.00,BKN,BKN,0.00,14.0,WeatherDisplay:10.37,2013-04-25 12:21:00,
2013-04-25 06:26:00,33.6,20.8,30.04,SSW,208,0.0,0.0,59,0.00,BKN,BKN,0.00,18.0,WeatherDisplay:10.37,2013-04-25 12:26:00,
2013-04-25 06:31:00,33.5,20.7,30.05,SSW,208,0.0,0.0,59,0.00,BKN,BKN,0.00,25.0,WeatherDisplay:10.37,2013-04-25 12:31:00,
2013-04-25 06:36:00,33.4,20.2,30.04,SSW,208,0.6,1.1,58,0.00,BKN,BKN,0.00,32.0,WeatherDisplay:10.37,2013-04-25 12:36:00,
2013-04-25 06:41:00,33.3,19.7,30.04,SSW,208,0.0,0.0,57,0.00,BKN,BKN,0.00,37.0,WeatherDisplay:10.37,2013-04-25 12:41:00,
2013-04-25 06:46:00,33.3,19.3,30.04,SSW,208,0.0,0.0,56,0.00,BKN,BKN,0.00,60.0,WeatherDisplay:10.37,2013-04-25 12:46:00,
2013-04-25 06:51:00,33.3,19.7,30.04,SSW,208,0.0,0.0,57,0.00,BKN,BKN,0.00,62.0,WeatherDisplay:10.37,2013-04-25 12:51:00,
2013-04-25 06:56:00,33.3,19.3,30.04,SSW,208,0.0,0.0,56,0.00,BKN,BKN,0.00,84.0,WeatherDisplay:10.37,2013-04-25 12:56:00,
2013-04-25 07:01:00,33.4,18.9,30.04,SSW,208,0.0,0.0,55,0.00,SCT,SCT,0.00,104.0,WeatherDisplay:10.37,2013-04-25 13:01:00,
2013-04-25 07:06:00,33.7,19.2,30.06,SSW,207,1.1,2.3,55,0.00,SCT,SCT,0.00,109.0,WeatherDisplay:10.37,2013-04-25 13:06:00,
2013-04-25 07:11:00,34.0,19.5,30.06,SSW,207,1.3,3.4,55,0.00,SCT,SCT,0.00,181.0,WeatherDisplay:10.37,2013-04-25 13:11:00,
2013-04-25 07:16:00,34.4,19.5,30.06,SSW,208,0.1,1.1,54,0.00,SCT,SCT,0.00,206.0,WeatherDisplay:10.37,2013-04-25 13:16:00,
2013-04-25 07:21:00,34.9,19.5,30.06,SSW,208,0.7,2.3,53,0.00,SCT,SCT,0.00,216.0,WeatherDisplay:10.37,2013-04-25 13:21:00,
2013-04-25 07:26:00,35.5,19.6,30.07,SSW,208,1.3,3.4,52,0.00,SCT,SCT,0.00,172.0,WeatherDisplay:10.37,2013-04-25 13:26:00,
2013-04-25 07:31:00,36.1,19.7,30.06,SSW,209,0.4,2.3,51,0.00,SCT,SCT,0.00,236.0,WeatherDisplay:10.37,2013-04-25 13:31:00,
2013-04-25 07:36:00,36.6,19.7,30.05,SSW,209,0.5,1.1,50,0.00,SCT,SCT,0.00,255.0,WeatherDisplay:10.37,2013-04-25 13:36:00,
2013-04-25 07:41:00,37.1,20.2,30.05,WSW,247,1.6,3.4,50,0.00,SCT,SCT,0.00,279.0,WeatherDisplay:10.37,2013-04-25 13:41:00,
2013-04-25 07:46:00,37.5,19.6,30.04,WSW,246,1.3,3.4,48,0.00,SCT,SCT,0.00,299.0,WeatherDisplay:10.37,2013-04-25 13:46:00,
2013-04-25 07:51:00,38.0,19.5,30.04,WSW,247,0.6,2.3,47,0.00,SCT,SCT,0.00,316.0,WeatherDisplay:10.37,2013-04-25 13:51:00,
2013-04-25 07:56:00,38.5,19.5,30.04,WSW,246,0.0,0.0,46,0.00,SCT,SCT,0.00,334.0,WeatherDisplay:10.37,2013-04-25 13:56:00,
2013-04-25 08:01:00,39.3,19.7,30.04,WSW,247,0.0,0.0,45,0.00,BKN,BKN,0.00,352.0,WeatherDisplay:10.37,2013-04-25 14:01:00,
2013-04-25 08:06:00,40.0,19.3,30.04,WSW,247,0.3,2.3,43,0.00,BKN,BKN,0.00,373.0,WeatherDisplay:10.37,2013-04-25 14:06:00,
2013-04-25 08:11:00,40.9,19.5,30.04,WSW,247,0.3,2.0,42,0.00,BKN,BKN,0.00,390.0,WeatherDisplay:10.37,2013-04-25 14:11:00,
2013-04-25 08:16:00,41.4,19.4,30.04,WSW,247,0.4,2.3,41,0.00,BKN,BKN,0.00,432.0,WeatherDisplay:10.37,2013-04-25 14:16:00,
2013-04-25 08:21:00,41.9,18.7,30.03,WSW,247,0.0,2.3,39,0.00,BKN,BKN,0.00,174.0,WeatherDisplay:10.37,2013-04-25 14:21:00,
2013-04-25 08:26:00,42.2,19.0,30.03,WSW,246,0.0,0.0,39,0.00,BKN,BKN,0.00,120.0,WeatherDisplay:10.37,2013-04-25 14:26:00,
2013-04-25 08:31:00,42.4,18.6,30.02,WSW,246,1.3,3.4,38,0.00,BKN,BKN,0.00,480.0,WeatherDisplay:10.37,2013-04-25 14:31:00,
2013-04-25 08:36:00,42.8,18.3,30.02,WSW,247,0.1,2.3,37,0.00,BKN,BKN,0.00,490.0,WeatherDisplay:10.37,2013-04-25 14:36:00,
2013-04-25 08:41:00,43.0,19.1,30.02,WSW,246,0.0,1.1,38,0.00,BKN,BKN,0.00,496.0,WeatherDisplay:10.37,2013-04-25 14:41:00,
2013-04-25 08:46:00,43.6,19.6,30.01,WSW,246,0.0,1.1,38,0.00,BKN,BKN,0.00,512.0,WeatherDisplay:10.37,2013-04-25 14:46:00,
2013-04-25 08:51:00,44.3,19.0,30.01,WSW,246,0.0,1.1,36,0.00,BKN,BKN,0.00,533.0,WeatherDisplay:10.37,2013-04-25 14:51:00,
2013-04-25 08:56:00,44.8,19.4,30.01,WSW,247,0.0,2.3,36,0.00,BKN,BKN,0.00,543.0,WeatherDisplay:10.37,2013-04-25 14:56:00,
2013-04-25 09:01:00,45.0,19.0,30.01,WSW,242,0.4,3.4,35,0.00,BKN,BKN,0.00,563.0,WeatherDisplay:10.37,2013-04-25 15:01:00,
2013-04-25 09:06:00,45.3,19.2,30.02,WSW,242,0.0,2.3,35,0.00,BKN,BKN,0.00,578.0,WeatherDisplay:10.37,2013-04-25 15:06:00,
2013-04-25 09:13:00,46.5,19.6,30.01,WSW,242,2.1,2.3,34,0.00,SCT,SCT,0.00,599.0,WeatherDisplay:10.37,2013-04-25 15:13:00,
2013-04-25 09:18:00,46.8,19.9,30.01,WSW,242,0.0,2.3,34,0.00,SCT,SCT,0.00,619.0,WeatherDisplay:10.37,2013-04-25 15:18:00,
2013-04-25 09:25:00,47.7,20.7,30.01,WSW,237,1.5,3.4,34,0.00,SCT,SCT,0.00,642.0,WeatherDisplay:10.37,2013-04-25 15:25:00,
2013-04-25 09:30:00,47.9,20.8,30.00,WSW,238,0.0,0.0,34,0.00,SCT,SCT,0.00,656.0,WeatherDisplay:10.37,2013-04-25 15:30:00,
2013-04-25 09:35:00,48.3,20.5,30.00,WSW,238,1.2,3.4,33,0.00,SCT,SCT,0.00,673.0,WeatherDisplay:10.37,2013-04-25 15:35:00,
2013-04-25 09:40:00,48.7,20.1,29.99,NW,321,1.3,2.3,32,0.00,SCT,SCT,0.00,686.0,WeatherDisplay:10.37,2013-04-25 15:40:00,
2013-04-25 09:45:00,49.0,20.4,29.98,NW,321,0.8,2.3,32,0.00,SCT,SCT,0.00,700.0,WeatherDisplay:10.37,2013-04-25 15:45:00,
2013-04-25 09:50:00,49.8,20.3,29.98,NW,321,0.5,2.3,31,0.00,SCT,SCT,0.00,715.0,WeatherDisplay:10.37,2013-04-25 15:50:00,
2013-04-25 09:55:00,50.4,21.6,29.98,NW,321,0.0,0.0,32,0.00,SCT,SCT,0.00,731.0,WeatherDisplay:10.37,2013-04-25 15:55:00,
2013-04-25 10:00:00,51.4,20.2,29.97,SSW,207,0.7,3.4,29,0.00,SCT,SCT,0.00,745.0,WeatherDisplay:10.37,2013-04-25 16:00:00,
2013-04-25 10:05:00,52.3,21.7,29.97,SSE,165,0.4,3.0,30,0.00,SCT,SCT,0.00,761.0,WeatherDisplay:10.37,2013-04-25 16:05:00,
2013-04-25 10:10:00,52.9,19.8,29.97,SSE,165,0.1,2.3,27,0.00,SCT,SCT,0.00,773.0,WeatherDisplay:10.37,2013-04-25 16:10:00,
2013-04-25 10:15:00,53.0,19.9,29.96,SW,234,1.0,3.4,27,0.00,SCT,SCT,0.00,789.0,WeatherDisplay:10.37,2013-04-25 16:15:00,
2013-04-25 10:20:00,53.1,20.8,29.96,SW,235,0.8,2.3,28,0.00,SCT,SCT,0.00,798.0,WeatherDisplay:10.37,2013-04-25 16:20:00,
2013-04-25 10:25:00,53.8,20.6,29.95,SW,234,0.2,3.4,27,0.00,SCT,SCT,0.00,816.0,WeatherDisplay:10.37,2013-04-25 16:25:00,
2013-04-25 10:30:00,54.2,19.1,29.95,SW,214,2.2,3.4,25,0.00,SCT,SCT,0.00,824.0,WeatherDisplay:10.37,2013-04-25 16:30:00,
2013-04-25 10:35:00,54.2,19.1,29.95,SW,215,0.0,1.1,25,0.00,SCT,SCT,0.00,833.0,WeatherDisplay:10.37,2013-04-25 16:35:00,
2013-04-25 10:40:00,54.5,16.4,29.95,SSW,200,3.0,4.6,22,0.00,SCT,SCT,0.00,849.0,WeatherDisplay:10.37,2013-04-25 16:40:00,
2013-04-25 10:45:00,54.7,17.6,29.95,SSW,205,1.8,3.4,23,0.00,SCT,SCT,0.00,863.0,WeatherDisplay:10.37,2013-04-25 16:45:00,
2013-04-25 10:50:00,55.6,19.3,29.93,South,187,0.1,2.3,24,0.00,SCT,SCT,0.00,858.0,WeatherDisplay:10.37,2013-04-25 16:50:00,
2013-04-25 10:55:00,57.3,17.6,29.93,ESE,107,3.5,6.0,21,0.00,SCT,SCT,0.00,835.0,WeatherDisplay:10.37,2013-04-25 16:55:00,
2013-04-25 11:00:00,57.8,15.7,29.92,ESE,114,2.1,3.4,19,0.00,SCT,SCT,0.00,900.0,WeatherDisplay:10.37,2013-04-25 17:00:00,
2013-04-25 11:05:00,58.2,16.1,29.94,SE,133,2.0,3.4,19,0.00,SCT,SCT,0.00,909.0,WeatherDisplay:10.37,2013-04-25 17:05:00,
2013-04-25 11:10:00,58.6,15.2,29.93,South,169,2.4,4.6,18,0.00,SCT,SCT,0.00,918.0,WeatherDisplay:10.37,2013-04-25 17:10:00,
2013-04-25 11:15:00,58.5,15.1,29.92,East,92,2.4,4.0,18,0.00,SCT,SCT,0.00,926.0,WeatherDisplay:10.37,2013-04-25 17:15:00,
2013-04-25 11:20:00,58.8,16.6,29.92,SE,140,1.8,4.6,19,0.00,SCT,SCT,0.00,935.0,WeatherDisplay:10.37,2013-04-25 17:20:00,
2013-04-25 11:25:00,59.0,16.7,29.92,ESE,106,1.3,3.4,19,0.00,SCT,SCT,0.00,940.0,WeatherDisplay:10.37,2013-04-25 17:25:00,
2013-04-25 11:30:00,59.0,15.5,29.92,SE,138,0.1,3.4,18,0.00,SCT,SCT,0.00,947.0,WeatherDisplay:10.37,2013-04-25 17:30:00,
2013-04-25 11:35:00,59.0,16.7,29.91,SSE,149,3.5,6.9,19,0.00,SCT,SCT,0.00,954.0,WeatherDisplay:10.37,2013-04-25 17:35:00,
2013-04-25 11:40:00,59.0,16.7,29.91,SE,134,0.9,3.4,19,0.00,SCT,SCT,0.00,935.0,WeatherDisplay:10.37,2013-04-25 17:40:00,
2013-04-25 11:45:00,59.8,17.4,29.91,ENE,75,1.6,3.4,19,0.00,SCT,SCT,0.00,970.0,WeatherDisplay:10.37,2013-04-25 17:45:00,
2013-04-25 11:50:00,59.9,16.2,29.91,East,94,2.1,5.0,18,0.00,SCT,SCT,0.00,986.0,WeatherDisplay:10.37,2013-04-25 17:50:00,
2013-04-25 11:55:00,60.1,17.6,29.90,SE,144,2.1,3.4,19,0.00,SCT,SCT,0.00,990.0,WeatherDisplay:10.37,2013-04-25 17:55:00,
2013-04-25 12:00:00,60.5,19.2,29.89,ENE,74,2.8,8.1,20,0.00,SCT,SCT,0.00,991.0,WeatherDisplay:10.37,2013-04-25 18:00:00,
2013-04-25 12:05:00,60.2,17.7,29.91,East,87,1.7,3.0,19,0.00,BKN,BKN,0.00,993.0,WeatherDisplay:10.37,2013-04-25 18:05:00,
2013-04-25 12:10:00,60.7,18.1,29.89,ESE,111,1.0,4.6,19,0.00,BKN,BKN,0.00,998.0,WeatherDisplay:10.37,2013-04-25 18:10:00,
2013-04-25 12:15:00,61.1,18.5,29.89,ENE,72,3.4,6.9,19,0.00,BKN,BKN,0.00,983.0,WeatherDisplay:10.37,2013-04-25 18:15:00,
2013-04-25 12:20:00,61.5,22.3,29.89,East,94,3.9,5.0,22,0.00,BKN,BKN,0.00,995.0,WeatherDisplay:10.37,2013-04-25 18:20:00,
2013-04-25 12:25:00,61.6,20.1,29.88,ESE,121,2.4,3.4,20,0.00,BKN,BKN,0.00,993.0,WeatherDisplay:10.37,2013-04-25 18:25:00,
2013-04-25 12:30:00,61.4,17.5,29.88,ESE,119,4.5,5.8,18,0.00,BKN,BKN,0.00,993.0,WeatherDisplay:10.37,2013-04-25 18:30:00,
2013-04-25 12:35:00,61.8,19.0,29.88,NE,42,5.8,8.0,19,0.00,BKN,BKN,0.00,993.0,WeatherDisplay:10.37,2013-04-25 18:35:00,
2013-04-25 12:40:00,61.9,20.3,29.87,ENE,63,2.0,2.0,20,0.00,BKN,BKN,0.00,993.0,WeatherDisplay:10.37,2013-04-25 18:40:00,
2013-04-25 12:45:00,62.6,19.7,29.86,East,87,3.9,5.8,19,0.00,BKN,BKN,0.00,997.0,WeatherDisplay:10.37,2013-04-25 18:45:00,
2013-04-25 12:50:00,62.9,17.4,29.85,SE,135,4.5,6.9,17,0.00,BKN,BKN,0.00,998.0,WeatherDisplay:10.37,2013-04-25 18:50:00,
2013-04-25 12:55:00,62.7,18.5,29.85,SSE,157,2.3,6.9,18,0.00,BKN,BKN,0.00,1002.0,WeatherDisplay:10.37,2013-04-25 18:55:00,
2013-04-25 13:00:00,63.7,18.0,29.85,NE,51,2.6,5.8,17,0.00,BKN,BKN,0.00,1005.0,WeatherDisplay:10.37,2013-04-25 19:00:00,
2013-04-25 13:05:00,63.8,20.7,29.85,NE,55,4.7,10.0,19,0.00,BKN,BKN,0.00,1004.0,WeatherDisplay:10.37,2013-04-25 19:05:00,
2013-04-25 13:10:00,63.8,19.4,29.85,ESE,118,2.5,10.3,18,0.00,BKN,BKN,0.00,1002.0,WeatherDisplay:10.37,2013-04-25 19:10:00,
2013-04-25 13:15:00,63.8,18.1,29.86,SE,130,3.8,4.6,17,0.00,BKN,BKN,0.00,1005.0,WeatherDisplay:10.37,2013-04-25 19:15:00,
2013-04-25 13:20:00,63.5,17.8,29.85,ENE,59,2.7,4.6,17,0.00,BKN,BKN,0.00,1002.0,WeatherDisplay:10.37,2013-04-25 19:20:00,
2013-04-25 13:25:00,63.5,20.5,29.84,East,90,3.9,11.5,19,0.00,BKN,BKN,0.00,1002.0,WeatherDisplay:10.37,2013-04-25 19:25:00,
2013-04-25 13:30:00,64.3,21.1,29.84,NE,42,1.4,6.9,19,0.00,BKN,BKN,0.00,1005.0,WeatherDisplay:10.37,2013-04-25 19:30:00,
2013-04-25 13:35:00,64.8,20.2,29.83,ENE,78,1.5,5.8,18,0.00,BKN,BKN,0.00,1032.0,WeatherDisplay:10.37,2013-04-25 19:35:00,
2013-04-25 13:40:00,64.8,20.2,29.83,SE,136,1.9,3.4,18,0.00,BKN,BKN,0.00,1032.0,WeatherDisplay:10.37,2013-04-25 19:40:00,
2013-04-25 13:45:00,64.7,20.2,29.83,ENE,59,6.1,9.2,18,0.00,BKN,BKN,0.00,962.0,WeatherDisplay:10.37,2013-04-25 19:45:00,
2013-04-25 13:50:00,64.7,20.2,29.83,East,96,5.2,5.8,18,0.00,BKN,BKN,0.00,1009.0,WeatherDisplay:10.37,2013-04-25 19:50:00,
2013-04-25 13:55:00,64.4,19.9,29.84,East,84,2.9,4.0,18,0.00,BKN,BKN,0.00,1081.0,WeatherDisplay:10.37,2013-04-25 19:55:00,
2013-04-25 14:00:00,64.7,21.4,29.82,ENE,69,3.0,6.9,19,0.00,BKN,BKN,0.00,1049.0,WeatherDisplay:10.37,2013-04-25 20:00:00,
2013-04-25 14:05:00,65.5,24.5,29.83,NNE,30,2.3,7.0,21,0.00,BKN,BKN,0.00,1002.0,WeatherDisplay:10.37,2013-04-25 20:05:00,
2013-04-25 14:10:00,65.6,23.4,29.82,East,91,0.9,4.6,20,0.00,BKN,BKN,0.00,329.0,WeatherDisplay:10.37,2013-04-25 20:10:00,
2013-04-25 14:15:00,65.2,21.9,29.82,ESE,113,2.5,5.8,19,0.00,BKN,BKN,0.00,462.0,WeatherDisplay:10.37,2013-04-25 20:15:00,
2013-04-25 14:20:00,64.5,22.5,29.83,East,88,3.0,10.3,20,0.00,BKN,BKN,0.00,446.0,WeatherDisplay:10.37,2013-04-25 20:20:00,
2013-04-25 14:25:00,64.6,22.6,29.82,ENE,73,1.3,2.3,20,0.00,BKN,BKN,0.00,360.0,WeatherDisplay:10.37,2013-04-25 20:25:00,
2013-04-25 14:30:00,64.5,22.5,29.82,SE,126,5.5,6.9,20,0.00,BKN,BKN,0.00,640.0,WeatherDisplay:10.37,2013-04-25 20:30:00,
2013-04-25 14:35:00,64.3,22.3,29.82,East,88,4.9,8.1,20,0.00,BKN,BKN,0.00,432.0,WeatherDisplay:10.37,2013-04-25 20:35:00,
2013-04-25 14:40:00,64.2,22.2,29.81,ESE,111,1.4,4.6,20,0.00,BKN,BKN,0.00,323.0,WeatherDisplay:10.37,2013-04-25 20:40:00,
2013-04-25 14:45:00,63.9,22.0,29.82,ESE,110,2.0,5.8,20,0.00,BKN,BKN,0.00,283.0,WeatherDisplay:10.37,2013-04-25 20:45:00,
2013-04-25 14:50:00,63.9,22.0,29.82,ESE,113,2.2,4.6,20,0.00,BKN,BKN,0.00,313.0,WeatherDisplay:10.37,2013-04-25 20:50:00,
2013-04-25 14:55:00,63.9,22.0,29.81,ENE,74,0.6,3.4,20,0.00,BKN,BKN,0.00,327.0,WeatherDisplay:10.37,2013-04-25 20:55:00,
2013-04-25 15:00:00,63.7,21.8,29.81,ESE,117,2.7,7.0,20,0.00,BKN,BKN,0.00,373.0,WeatherDisplay:10.37,2013-04-25 21:00:00,
2013-04-25 15:05:00,63.2,22.6,29.81,ESE,116,3.9,5.8,21,0.00,BKN,BKN,0.00,345.0,WeatherDisplay:10.37,2013-04-25 21:05:00,
2013-04-25 15:10:00,63.1,22.5,29.81,NE,48,4.3,6.9,21,0.00,BKN,BKN,0.00,357.0,WeatherDisplay:10.37,2013-04-25 21:10:00,
2013-04-25 15:15:00,63.1,22.5,29.80,East,92,2.8,3.4,21,0.00,BKN,BKN,0.00,362.0,WeatherDisplay:10.37,2013-04-25 21:15:00,
2013-04-25 15:20:00,63.3,22.7,29.80,ENE,67,4.2,9.2,21,0.00,BKN,BKN,0.00,436.0,WeatherDisplay:10.37,2013-04-25 21:20:00,
2013-04-25 15:25:00,63.7,23.0,29.80,NE,49,3.5,6.0,21,0.00,BKN,BKN,0.00,531.0,WeatherDisplay:10.37,2013-04-25 21:25:00,
2013-04-25 15:30:00,64.2,23.4,29.80,ESE,121,0.5,3.4,21,0.00,BKN,BKN,0.00,573.0,WeatherDisplay:10.37,2013-04-25 21:30:00,
2013-04-25 15:35:00,64.5,23.7,29.78,NE,45,2.9,6.9,21,0.00,BKN,BKN,0.00,557.0,WeatherDisplay:10.37,2013-04-25 21:35:00,
2013-04-25 15:40:00,64.7,22.7,29.77,ESE,107,3.3,10.3,20,0.00,BKN,BKN,0.00,548.0,WeatherDisplay:10.37,2013-04-25 21:40:00,
2013-04-25 15:45:00,64.9,24.0,29.77,NE,44,5.1,11.5,21,0.00,BKN,BKN,0.00,401.0,WeatherDisplay:10.37,2013-04-25 21:45:00,
2013-04-25 15:50:00,64.4,23.6,29.78,ENE,75,3.2,4.6,21,0.00,BKN,BKN,0.00,346.0,WeatherDisplay:10.37,2013-04-25 21:50:00,
2013-04-25 15:55:00,64.2,23.4,29.78,NE,41,7.6,10.3,21,0.00,BKN,BKN,0.00,352.0,WeatherDisplay:10.37,2013-04-25 21:55:00,
2013-04-25 16:00:00,63.9,24.3,29.78,ESE,107,2.7,10.3,22,0.00,BKN,BKN,0.00,568.0,WeatherDisplay:10.37,2013-04-25 22:00:00,
2013-04-25 16:05:00,64.2,24.5,29.76,ENE,66,2.6,4.6,22,0.00,BKN,BKN,0.00,403.0,WeatherDisplay:10.37,2013-04-25 22:05:00,
2013-04-25 16:10:00,64.4,24.7,29.76,East,90,0.6,3.4,22,0.00,BKN,BKN,0.00,225.0,WeatherDisplay:10.37,2013-04-25 22:10:00,
2013-04-25 16:15:00,64.3,23.5,29.76,NE,55,3.1,5.8,21,0.00,BKN,BKN,0.00,267.0,WeatherDisplay:10.37,2013-04-25 22:15:00,
2013-04-25 16:20:00,63.8,24.2,29.77,East,83,4.8,9.2,22,0.00,BKN,BKN,0.00,262.0,WeatherDisplay:10.37,2013-04-25 22:20:00,
2013-04-25 16:25:00,63.4,23.8,29.77,NNE,19,2.7,5.8,22,0.00,BKN,BKN,0.00,230.0,WeatherDisplay:10.37,2013-04-25 22:25:00,
2013-04-25 16:30:00,63.1,24.7,29.77,NNE,33,4.3,8.1,23,0.00,BKN,BKN,0.00,236.0,WeatherDisplay:10.37,2013-04-25 22:30:00,
2013-04-25 16:35:00,62.7,24.3,29.78,NE,46,3.3,9.2,23,0.00,BKN,BKN,0.00,221.0,WeatherDisplay:10.37,2013-04-25 22:35:00,
2013-04-25 16:40:00,62.7,24.3,29.78,NE,45,7.7,9.2,23,0.00,BKN,BKN,0.00,216.0,WeatherDisplay:10.37,2013-04-25 22:40:00,
2013-04-25 16:45:00,62.5,25.2,29.77,East,85,1.4,3.4,24,0.00,BKN,BKN,0.00,216.0,WeatherDisplay:10.37,2013-04-25 22:45:00,
2013-04-25 16:50:00,62.8,25.4,29.77,NNE,29,2.4,5.0,24,0.00,BKN,BKN,0.00,209.0,WeatherDisplay:10.37,2013-04-25 22:50:00,
2013-04-25 16:55:00,62.7,25.3,29.77,East,100,1.7,4.6,24,0.00,BKN,BKN,0.00,200.0,WeatherDisplay:10.37,2013-04-25 22:55:00,
2013-04-25 17:00:00,62.7,26.3,29.77,ENE,70,0.5,3.0,25,0.00,BKN,BKN,0.00,193.0,WeatherDisplay:10.37,2013-04-25 23:00:00,
2013-04-25 17:05:00,62.7,25.3,29.78,NE,42,1.5,4.6,24,0.00,BKN,BKN,0.00,178.0,WeatherDisplay:10.37,2013-04-25 23:05:00,
2013-04-25 17:10:00,62.6,25.3,29.78,NE,49,0.3,4.6,24,0.00,BKN,BKN,0.00,171.0,WeatherDisplay:10.37,2013-04-25 23:10:00,
2013-04-25 17:15:00,62.4,26.1,29.78,ENE,69,4.4,6.9,25,0.00,BKN,BKN,0.00,179.0,WeatherDisplay:10.37,2013-04-25 23:15:00,
2013-04-25 17:20:00,62.3,26.0,29.78,ESE,103,0.4,2.3,25,0.00,BKN,BKN,0.00,167.0,WeatherDisplay:10.37,2013-04-25 23:20:00,
2013-04-25 17:25:00,62.4,26.1,29.78,NE,44,1.1,4.6,25,0.00,BKN,BKN,0.00,163.0,WeatherDisplay:10.37,2013-04-25 23:25:00,
2013-04-25 17:30:00,62.3,26.0,29.79,NE,46,5.3,6.9,25,0.00,BKN,BKN,0.00,200.0,WeatherDisplay:10.37,2013-04-25 23:30:00,
2013-04-25 17:35:00,62.2,26.9,29.79,East,80,2.5,6.0,26,0.00,BKN,BKN,0.00,211.0,WeatherDisplay:10.37,2013-04-25 23:35:00,
2013-04-25 17:40:00,62.6,27.2,29.79,ESE,111,0.2,0.0,26,0.00,BKN,BKN,0.00,459.0,WeatherDisplay:10.37,2013-04-25 23:40:00,
2013-04-25 17:45:00,63.3,26.8,29.79,NE,53,5.0,5.0,25,0.00,BKN,BKN,0.00,281.0,WeatherDisplay:10.37,2013-04-25 23:45:00,
2013-04-25 17:50:00,63.4,26.9,29.79,NNE,28,3.3,6.0,25,0.00,BKN,BKN,0.00,417.0,WeatherDisplay:10.37,2013-04-25 23:50:00,
2013-04-25 17:55:00,63.7,27.2,29.78,NNE,25,0.1,4.6,25,0.00,BKN,BKN,0.00,352.0,WeatherDisplay:10.37,2013-04-25 23:55:00,
2013-04-25 18:00:00,64.0,26.4,29.78,NNE,31,1.4,3.4,24,0.00,BKN,BKN,0.00,183.0,WeatherDisplay:10.37,2013-04-26 00:00:00,
2013-04-25 18:05:00,64.1,26.5,29.78,NE,35,3.2,4.6,24,0.00,BKN,BKN,0.00,232.0,WeatherDisplay:10.37,2013-04-26 00:05:00,
2013-04-25 18:10:00,64.0,27.4,29.78,NE,49,0.8,5.0,25,0.00,BKN,BKN,0.00,251.0,WeatherDisplay:10.37,2013-04-26 00:10:00,
2013-04-25 18:15:00,64.0,27.4,29.78,NE,39,1.3,5.0,25,0.00,BKN,BKN,0.00,125.0,WeatherDisplay:10.37,2013-04-26 00:15:00,
2013-04-25 18:20:00,63.6,26.1,29.78,NNE,21,3.1,6.9,24,0.00,BKN,BKN,0.00,123.0,WeatherDisplay:10.37,2013-04-26 00:20:00,
2013-04-25 18:25:00,63.4,26.9,29.79,NE,50,2.0,4.6,25,0.00,BKN,BKN,0.00,220.0,WeatherDisplay:10.37,2013-04-26 00:25:00,
2013-04-25 18:30:00,63.4,26.9,29.79,NE,53,0.4,2.3,25,0.00,BKN,BKN,0.00,269.0,WeatherDisplay:10.37,2013-04-26 00:30:00,
2013-04-25 18:35:00,63.6,27.1,29.78,ENE,59,1.3,3.4,25,0.00,BKN,BKN,0.00,218.0,WeatherDisplay:10.37,2013-04-26 00:35:00,
2013-04-25 18:40:00,63.6,27.1,29.78,NE,49,2.6,5.0,25,0.00,BKN,BKN,0.00,93.0,WeatherDisplay:10.37,2013-04-26 00:40:00,
2013-04-25 18:45:00,63.4,26.9,29.79,NE,36,1.2,1.2,25,0.00,BKN,BKN,0.00,58.0,WeatherDisplay:10.37,2013-04-26 00:45:00,
2013-04-25 18:50:00,63.0,27.5,29.79,NE,36,0.7,3.4,26,0.00,BKN,BKN,0.00,83.0,WeatherDisplay:10.37,2013-04-26 00:50:00,
2013-04-25 18:55:00,62.7,27.3,29.79,NE,44,0.5,4.0,26,0.00,BKN,BKN,0.00,109.0,WeatherDisplay:10.37,2013-04-26 00:55:00,
2013-04-25 19:00:00,62.4,27.0,29.79,NE,43,2.0,3.4,26,0.00,BKN,BKN,0.00,105.0,WeatherDisplay:10.37,2013-04-26 01:00:00,
2013-04-25 19:05:00,62.2,27.8,29.77,NE,56,0.0,3.4,27,0.00,BKN,BKN,0.00,98.0,WeatherDisplay:10.37,2013-04-26 01:05:00,
2013-04-25 19:10:00,62.2,26.9,29.77,NE,56,0.3,3.4,26,0.00,BKN,BKN,0.00,77.0,WeatherDisplay:10.37,2013-04-26 01:10:00,
2013-04-25 19:15:00,62.1,26.8,29.77,East,89,2.2,3.4,26,0.00,BKN,BKN,0.00,49.0,WeatherDisplay:10.37,2013-04-26 01:15:00,
2013-04-25 19:20:00,61.9,27.5,29.77,NE,45,2.3,4.6,27,0.00,BKN,BKN,0.00,33.0,WeatherDisplay:10.37,2013-04-26 01:20:00,
2013-04-25 19:25:00,61.6,27.3,29.77,NNE,29,1.5,5.8,27,0.00,BKN,BKN,0.00,30.0,WeatherDisplay:10.37,2013-04-26 01:25:00,
2013-04-25 19:30:00,61.2,26.9,29.77,NNE,32,1.6,5.8,27,0.00,BKN,BKN,0.00,23.0,WeatherDisplay:10.37,2013-04-26 01:30:00,
2013-04-25 19:35:00,61.0,26.7,29.76,NE,51,3.3,6.0,27,0.00,BKN,BKN,0.00,14.0,WeatherDisplay:10.37,2013-04-26 01:35:00,
2013-04-25 19:40:00,60.6,26.4,29.77,NNE,32,3.1,3.4,27,0.00,BKN,BKN,0.00,12.0,WeatherDisplay:10.37,2013-04-26 01:40:00,
2013-04-25 19:45:00,60.2,26.1,29.78,NNE,29,0.6,3.4,27,0.00,BKN,BKN,0.00,7.0,WeatherDisplay:10.37,2013-04-26 01:45:00,
2013-04-25 19:50:00,59.9,26.7,29.79,NNE,32,0.5,3.4,28,0.00,BKN,BKN,0.00,0.0,WeatherDisplay:10.37,2013-04-26 01:50:00,
2013-04-25 19:55:00,59.5,26.3,29.79,NE,34,0.8,1.1,28,0.00,BKN,BKN,0.00,0.0,WeatherDisplay:10.37,2013-04-26 01:55:00,
2013-04-25 20:00:00,59.1,26.0,29.79,NE,36,1.5,1.5,28,0.00,BKN,BKN,0.00,0.0,WeatherDisplay:10.37,2013-04-26 02:00:00,
2013-04-25 20:05:00,59.0,26.8,29.76,NE,36,0.0,1.1,29,0.00,SCT,SCT,0.00,0.0,WeatherDisplay:10.37,2013-04-26 02:05:00,
2013-04-25 20:10:00,58.7,27.3,29.77,NE,37,0.4,2.3,30,0.00,SCT,SCT,0.00,0.0,WeatherDisplay:10.37,2013-04-26 02:10:00,
2013-04-25 20:15:00,58.4,28.6,29.78,NE,37,1.3,3.4,32,0.00,SCT,SCT,0.00,0.0,WeatherDisplay:10.37,2013-04-26 02:15:00,
2013-04-25 20:20:00,58.1,29.1,29.78,NE,36,0.3,3.4,33,0.00,SCT,SCT,0.00,0.0,WeatherDisplay:10.37,2013-04-26 02:20:00,
2013-04-25 20:25:00,57.7,30.2,29.78,NW,306,1.6,4.0,35,0.00,SCT,SCT,0.00,0.0,WeatherDisplay:10.37,2013-04-26 02:25:00,
2013-04-25 20:30:00,57.1,30.4,29.79,NNW,340,2.9,3.4,36,0.00,SCT,SCT,0.00,0.0,WeatherDisplay:10.37,2013-04-26 02:30:00,
2013-04-25 20:35:00,56.7,30.7,29.79,NNW,340,2.1,3.4,37,0.00,SCT,SCT,0.00,0.0,WeatherDisplay:10.37,2013-04-26 02:35:00,
2013-04-25 20:40:00,56.3,31.0,29.81,NNW,341,1.2,3.4,38,0.00,SCT,SCT,0.00,0.0,WeatherDisplay:10.37,2013-04-26 02:40:00,
2013-04-25 20:45:00,55.9,30.6,29.81,NNW,346,2.5,5.8,38,0.00,SCT,SCT,0.00,0.0,WeatherDisplay:10.37,2013-04-26 02:45:00,
2013-04-25 20:50:00,55.4,30.8,29.82,North,349,2.7,5.8,39,0.00,SCT,SCT,0.00,0.0,WeatherDisplay:10.37,2013-04-26 02:50:00,
2013-04-25 20:55:00,55.1,30.6,29.82,NNW,339,1.6,3.4,39,0.00,SCT,SCT,0.00,0.0,WeatherDisplay:10.37,2013-04-26 02:55:00,
2013-04-25 21:00:00,54.8,30.3,29.82,North,355,0.5,4.6,39,0.00,SCT,SCT,0.00,0.0,WeatherDisplay:10.37,2013-04-26 03:00:00,
2013-04-25 21:05:00,54.5,30.6,29.79,North,11,1.5,3.0,40,0.00,SCT,SCT,0.00,0.0,WeatherDisplay:10.37,2013-04-26 03:05:00,
2013-04-25 21:10:00,54.3,30.5,29.80,North,11,0.1,3.4,40,0.00,SCT,SCT,0.00,0.0,WeatherDisplay:10.37,2013-04-26 03:10:00,
2013-04-25 21:15:00,54.0,30.2,29.80,North,11,1.3,3.4,40,0.00,SCT,SCT,0.00,0.0,WeatherDisplay:10.37,2013-04-26 03:15:00,
2013-04-25 21:20:00,53.8,29.4,29.81,North,360,1.2,3.4,39,0.00,SCT,SCT,0.00,0.0,WeatherDisplay:10.37,2013-04-26 03:20:00,
2013-04-25 21:25:00,53.5,29.1,29.81,NNE,18,1.0,4.0,39,0.00,SCT,SCT,0.00,0.0,WeatherDisplay:10.37,2013-04-26 03:25:00,
2013-04-25 21:30:00,53.3,28.9,29.82,NNE,13,0.2,2.0,39,0.00,SCT,SCT,0.00,0.0,WeatherDisplay:10.37,2013-04-26 03:30:00,
2013-04-25 21:35:00,53.2,28.2,29.83,NNE,13,0.8,3.4,38,0.00,SCT,SCT,0.00,0.0,WeatherDisplay:10.37,2013-04-26 03:35:00,
2013-04-25 21:40:00,52.9,27.3,29.83,North,360,1.4,2.3,37,0.00,SCT,SCT,0.00,0.0,WeatherDisplay:10.37,2013-04-26 03:40:00,
2013-04-25 21:45:00,52.7,27.8,29.84,North,360,0.0,0.0,38,0.00,SCT,SCT,0.00,0.0,WeatherDisplay:10.37,2013-04-26 03:45:00,
2013-04-25 21:50:00,52.5,26.9,29.84,North,360,0.0,0.0,37,0.00,SCT,SCT,0.00,0.0,WeatherDisplay:10.37,2013-04-26 03:50:00,
2013-04-25 21:55:00,52.3,27.4,29.84,North,360,0.1,2.3,38,0.00,SCT,SCT,0.00,0.0,WeatherDisplay:10.37,2013-04-26 03:55:00,
2013-04-25 22:00:00,52.2,27.3,29.84,North,360,0.0,0.0,38,0.00,SCT,SCT,0.00,0.0,WeatherDisplay:10.37,2013-04-26 04:00:00,
2013-04-25 22:01:00,52.2,27.3,29.84,North,360,0.0,0.0,38,0.00,SCT,SCT,0.00,0.0,WeatherDisplay:10.37,2013-04-26 04:01:00,
2013-04-25 22:06:00,52.0,27.8,29.81,North,360,0.0,0.0,39,0.00,SCT,SCT,0.00,0.0,WeatherDisplay:10.37,2013-04-26 04:06:00,
2013-04-25 22:11:00,51.8,27.6,29.81,North,360,0.0,0.0,39,0.00,SCT,SCT,0.00,0.0,WeatherDisplay:10.37,2013-04-26 04:11:00,
2013-04-25 22:16:00,51.6,28.0,29.81,North,360,0.0,0.0,40,0.00,SCT,SCT,0.00,0.0,WeatherDisplay:10.37,2013-04-26 04:16:00,
2013-04-25 22:21:00,51.5,27.9,29.81,North,360,0.0,0.0,40,0.00,SCT,SCT,0.00,0.0,WeatherDisplay:10.37,2013-04-26 04:21:00,
2013-04-25 22:26:00,51.3,28.4,29.82,North,360,0.0,0.0,41,0.00,SCT,SCT,0.00,0.0,WeatherDisplay:10.37,2013-04-26 04:26:00,
2013-04-25 22:31:00,51.1,28.2,29.83,North,360,0.0,0.0,41,0.00,SCT,SCT,0.00,0.0,WeatherDisplay:10.37,2013-04-26 04:31:00,
2013-04-25 22:36:00,50.9,28.6,29.83,North,360,0.0,0.0,42,0.00,SCT,SCT,0.00,0.0,WeatherDisplay:10.37,2013-04-26 04:36:00,
2013-04-25 22:41:00,50.6,28.3,29.83,North,360,0.0,0.0,42,0.00,SCT,SCT,0.00,0.0,WeatherDisplay:10.37,2013-04-26 04:41:00,
2013-04-25 22:46:00,50.4,28.1,29.83,North,360,0.0,0.0,42,0.00,SCT,SCT,0.00,0.0,WeatherDisplay:10.37,2013-04-26 04:46:00,
2013-04-25 22:51:00,50.2,28.5,29.83,North,360,0.0,0.0,43,0.00,SCT,SCT,0.00,0.0,WeatherDisplay:10.37,2013-04-26 04:51:00,
2013-04-25 22:56:00,50.1,28.4,29.83,North,360,0.0,0.0,43,0.00,SCT,SCT,0.00,0.0,WeatherDisplay:10.37,2013-04-26 04:56:00,
2013-04-25 23:01:00,49.9,28.3,29.83,North,360,0.0,0.0,43,0.00,BKN,BKN,0.00,0.0,WeatherDisplay:10.37,2013-04-26 05:01:00,
2013-04-25 23:06:00,49.8,28.7,29.82,North,360,0.0,0.0,44,0.00,BKN,BKN,0.00,0.0,WeatherDisplay:10.37,2013-04-26 05:06:00,
2013-04-25 23:11:00,49.6,28.6,29.82,North,360,0.0,0.0,44,0.00,BKN,BKN,0.00,0.0,WeatherDisplay:10.37,2013-04-26 05:11:00,
2013-04-25 23:16:00,49.5,28.5,29.82,North,360,0.0,0.0,44,0.00,BKN,BKN,0.00,0.0,WeatherDisplay:10.37,2013-04-26 05:16:00,
2013-04-25 23:21:00,49.3,28.3,29.83,North,360,0.0,0.0,44,0.00,BKN,BKN,0.00,0.0,WeatherDisplay:10.37,2013-04-26 05:21:00,
2013-04-25 23:26:00,49.2,28.2,29.83,North,360,0.0,0.0,44,0.00,BKN,BKN,0.00,0.0,WeatherDisplay:10.37,2013-04-26 05:26:00,
2013-04-25 23:31:00,49.1,28.1,29.83,North,360,0.0,0.0,44,0.00,BKN,BKN,0.00,0.0,WeatherDisplay:10.37,2013-04-26 05:31:00,
2013-04-25 23:36:00,48.9,28.5,29.83,North,360,0.0,0.0,45,0.00,BKN,BKN,0.00,0.0,WeatherDisplay:10.37,2013-04-26 05:36:00,
2013-04-25 23:41:00,48.7,27.7,29.83,North,360,0.0,0.0,44,0.00,BKN,BKN,0.00,0.0,WeatherDisplay:10.37,2013-04-26 05:41:00,
2013-04-25 23:46:00,48.5,28.1,29.83,North,360,0.0,0.0,45,0.00,BKN,BKN,0.00,0.0,WeatherDisplay:10.37,2013-04-26 05:46:00,
2013-04-25 23:51:00,48.4,28.0,29.84,North,360,0.0,0.0,45,0.00,BKN,BKN,0.00,0.0,WeatherDisplay:10.37,2013-04-26 05:51:00,
2013-04-25 23:56:00,48.2,28.4,29.84,North,360,0.0,0.0,46,0.00,BKN,BKN,0.00,0.0,WeatherDisplay:10.37,2013-04-26 05:56:00,